Погода в Колобове

Россия / Ивановская область     56°42′17″N   41°20′51″E
темп.,
°C
ветер,
м/с
пор.,
м/с
влажн.,
%
обл.,
%
осадки,
мм/ч
давл.,
гПа
погр.,
м
14 июня, пн
пн1400:00+14юз229523 0.0 101022
03:00+13зюз239616 0.0 101145
06:00+16юз23925 0.0 1012107
09:00+21юз236577 0.0 1013605
12:00+25зюз234615 0.6 10142151
15:00+25юз235116 0.6 10141356
18:00+23зюз246039 0.0 1014260
21:00+18ссз118311 0.0 101411
15 июня, вт
вт1500:00+17юз118664 0.4 101411
03:00+16ююз019089 0.4 101411
06:00+18ю018893 0.0 101451
09:00+20ююз1177100 0.0 1014245
12:00+24ю12580 0.0 1013680
15:00+25ююз345598 0.0 1011909
18:00+23ююз117095 0.0 101049
21:00+18сз11891 1.1 101011
16 июня, ср
ср1600:00+16ю119568 4.7 100911
03:00+16ююв119494 4.9 100910
06:00+18зсз119498 0.4 100968
09:00+19зсз249174 1.2 1009185
12:00+18ссз6118179 1.8 1011539
15:00+21ссз585969 1.8 10121621
18:00+20сз58550 0.1 10131134
21:00+15сз4135693 0.1 1015386
17 июня, чт
чт1700:00+12сз310685 0.0 1017202
03:00+10сз38750 0.0 1019136
06:00+13сз39655 0.0 1021242
09:00+18ссз59470 0.0 10221088
12:00+21ссз59440 0.0 10221927
15:00+21ссз584836 0.0 10231985
18:00+21ссз38530 0.0 10231283
21:00+15зсз22740 0.0 102434
18 июня, пт
пт1800:00+13сз22845 0.0 102529
03:00+12зсз22865 0.0 102612
06:00+16зсз12765 0.0 1026100
09:00+22з12544 0.0 1026623
12:00+25зсз23410 0.0 10261842
15:00+26з34405 0.0 10241999
18:00+24зюз35575 0.0 1024616
21:00+18зюз358095 0.0 102469